Date String (YYYY-MM-DD hh:mm:ss) UTC,Instrument flags,absolute air pressure of the measurement (hPa),sample flow rate (lpm),inlet stack bypass flow (lpm),air temperature of the measurement (°C),ambient temperature measured by the external sensor (°C),aerosol sample conditioner tube jacket temperature (°C),OPC LED temperature (°C),internal box temperature (°C),relative humidity of the measurement (%),span deviation,mass concentration of particles derived from Lorenz-Mie calculation of OPC scattering (μg/m³),mass concentration of particles derived from Lorenz-Mie calculation of OPC scattering (μg/m³),mass concentration of particles derived from Lorenz-Mie calculation of OPC scattering (μg/m³)
DateTimeUTC,F1_M11,P_M11,Q1_M11,Q2_M11,T1_M11,T2_M11,T3_M11,T4_M11,T5_M11,U1_M11,ZSPAN_M11,X0_M11,X2_M11,X1_M11
2023-09-22 21:00:00,SystemResetWarning,0826.7,5.00,000.00,028.2,026.3,000.0,036.4,029.8,14.1,0000.0,0014.10,0004.71,0003.80
2023-09-22 21:01:00,SystemResetWarning,0826.6,5.00,000.00,028.1,024.6,000.0,036.3,029.5,14.3,0000.0,0013.53,0004.62,0003.75
2023-09-22 21:02:00,SystemResetWarning,0826.5,5.00,000.00,028.0,024.3,000.0,036.3,029.4,14.7,0000.0,0012.60,0004.58,0003.72
2023-09-22 21:03:00,SystemResetWarning,0826.6,5.01,000.00,027.9,024.6,000.0,036.3,029.3,14.8,0000.0,0012.69,0004.57,0003.70
2023-09-22 21:04:00,SystemResetWarning,0826.5,5.00,000.00,027.9,025.0,000.0,036.3,029.4,14.5,0000.0,0012.66,0004.53,0003.68
2023-09-22 21:05:00,SystemResetWarning,0826.6,4.99,000.00,027.9,025.4,000.0,036.3,029.5,14.8,0000.0,0012.39,0004.46,0003.66
2023-09-22 21:06:00,SystemResetWarning,0826.6,5.01,000.00,027.9,025.8,000.0,036.3,029.6,14.9,0000.0,0012.50,0004.52,0003.66
2023-09-22 21:07:00,SystemResetWarning,0826.6,5.00,000.00,028.0,026.2,000.0,036.3,029.7,14.9,0000.0,0012.20,0004.61,0003.66
2023-09-22 21:08:00,SystemResetWarning,0826.6,5.00,000.00,028.0,026.5,000.0,036.3,029.8,14.5,0000.0,0012.12,0004.66,0003.66
2023-09-22 21:09:00,SystemResetWarning,0826.6,5.00,000.00,028.1,026.8,000.0,036.3,029.9,14.4,0000.0,0011.96,0004.64,0003.65
2023-09-22 21:10:00,SystemResetWarning,0826.6,5.00,000.00,028.1,027.0,000.0,036.3,030.0,14.1,0000.0,0011.28,0004.61,0003.63
2023-09-22 21:11:00,SystemResetWarning,0826.5,5.00,000.00,028.2,027.1,000.0,036.3,030.0,14.3,0000.0,0010.91,0004.57,0003.63
2023-09-22 21:12:00,SystemResetWarning,0826.6,4.98,000.00,028.2,025.8,000.0,036.3,029.7,14.6,0000.0,0010.81,0004.58,0003.63
2023-09-22 21:13:00,SystemResetWarning,0826.6,5.01,000.00,028.1,024.4,000.0,036.3,029.4,14.7,0000.0,0010.12,0004.56,0003.62
2023-09-22 21:14:00,SystemResetWarning,0826.6,5.01,000.00,028.0,024.4,000.0,036.2,029.4,14.2,0000.0,0010.63,0004.58,0003.63
2023-09-22 21:15:00,SystemResetWarning,0826.6,4.99,000.00,027.9,024.7,000.0,036.2,029.3,14.0,0000.0,0011.21,0004.59,0003.63
2023-09-22 21:16:00,SystemResetWarning,0826.6,4.99,000.00,027.9,025.1,000.0,036.2,029.4,14.3,0000.0,0011.40,0004.55,0003.63
2023-09-22 21:17:00,SystemResetWarning,0826.5,5.00,000.00,027.9,025.6,000.0,036.2,029.5,14.2,0000.0,0010.97,0004.47,0003.62
2023-09-22 21:18:00,SystemResetWarning,0826.4,5.01,000.00,027.9,026.0,000.0,036.2,029.6,14.0,0000.0,0010.53,0004.36,0003.60
2023-09-22 21:19:00,SystemResetWarning,0826.4,4.98,000.00,028.0,026.3,000.0,036.3,029.7,14.0,0000.0,0010.32,0004.28,0003.58
2023-09-22 21:20:00,SystemResetWarning,0826.4,5.00,000.00,028.0,026.6,000.0,036.3,029.8,13.6,0000.0,0010.99,0004.28,0003.58
2023-09-22 21:21:00,SystemResetWarning,0826.4,5.00,000.00,028.1,026.9,000.0,036.3,029.9,13.9,0000.0,0011.66,0004.27,0003.57
2023-09-22 21:22:00,SystemResetWarning,0826.4,5.01,000.00,028.2,027.1,000.0,036.3,030.0,14.0,0000.0,0012.24,0004.27,0003.56
2023-09-22 21:23:00,SystemResetWarning,0826.4,4.99,000.00,028.2,026.2,000.0,036.3,029.8,14.2,0000.0,0012.19,0004.29,0003.55
2023-09-22 21:24:00,SystemResetWarning,0826.4,5.00,000.00,028.0,024.7,000.0,036.2,029.4,14.2,0000.0,0012.14,0004.29,0003.53
2023-09-22 21:25:00,SystemResetWarning,0826.4,5.01,000.00,028.0,024.4,000.0,036.2,029.3,14.4,0000.0,0011.43,0004.24,0003.51
2023-09-22 21:26:00,SystemResetWarning,0826.4,5.02,000.00,027.9,024.7,000.0,036.2,029.3,14.5,0000.0,0011.11,0004.22,0003.49
2023-09-22 21:27:00,SystemResetWarning,0826.4,5.00,000.00,027.9,025.1,000.0,036.2,029.4,14.4,0000.0,0011.86,0004.22,0003.49
2023-09-22 21:28:00,SystemResetWarning,0826.4,5.00,000.00,027.9,025.5,000.0,036.2,029.5,14.3,0000.0,0012.25,0004.25,0003.49
2023-09-22 21:29:00,SystemResetWarning,0826.4,5.01,000.00,027.9,025.9,000.0,036.2,029.6,14.4,0000.0,0012.17,0004.25,0003.48
2023-09-22 21:30:00,SystemResetWarning,0826.4,5.00,000.00,027.9,026.2,000.0,036.2,029.7,13.9,0000.0,0012.25,0004.30,0003.49
2023-09-22 21:31:00,SystemResetWarning,0826.4,5.00,000.00,028.0,026.5,000.0,036.2,029.8,13.8,0000.0,0012.43,0004.33,0003.48
2023-09-22 21:32:00,SystemResetWarning,0826.4,5.00,000.00,028.0,026.7,000.0,036.2,029.8,13.7,0000.0,0011.58,0004.32,0003.47
2023-09-22 21:33:00,SystemResetWarning,0826.4,4.99,000.00,028.1,026.9,000.0,036.3,029.9,13.6,0000.0,0010.96,0004.32,0003.46
2023-09-22 21:34:00,SystemResetWarning,0826.4,5.00,000.00,028.1,027.1,000.0,036.3,030.0,13.6,0000.0,0010.77,0004.29,0003.45
2023-09-22 21:35:00,SystemResetWarning,0826.4,4.99,000.00,028.2,026.6,000.0,036.3,029.9,13.6,0000.0,0010.81,0004.26,0003.43
2023-09-22 21:36:00,SystemResetWarning,0826.4,5.00,000.00,028.1,024.9,000.0,036.3,029.4,13.3,0000.0,0010.90,0004.26,0003.43
2023-09-22 21:37:00,SystemResetWarning,0826.4,5.01,000.00,028.0,024.2,000.0,036.2,029.3,13.5,0000.0,0010.78,0004.26,0003.42
2023-09-22 21:38:00,SystemResetWarning,0826.4,5.02,000.00,027.9,024.4,000.0,036.2,029.3,13.7,0000.0,0010.22,0004.26,0003.42
2023-09-22 21:39:00,SystemResetWarning,0826.4,4.99,000.00,027.8,024.8,000.0,036.2,029.3,13.5,0000.0,0009.79,0004.23,0003.41
2023-09-22 21:40:00,SystemResetWarning,0826.3,5.00,000.00,027.8,025.2,000.0,036.2,029.4,13.5,0000.0,0009.68,0004.20,0003.41
2023-09-22 21:41:00,SystemResetWarning,0826.3,5.01,000.00,027.8,025.6,000.0,036.2,029.4,13.6,0000.0,0010.11,0004.20,0003.40
2023-09-22 21:42:00,SystemResetWarning,0826.3,4.99,000.00,027.9,026.0,000.0,036.2,029.5,13.8,0000.0,0009.75,0004.17,0003.39
2023-09-22 21:43:00,SystemResetWarning,0826.2,4.99,000.00,027.9,026.3,000.0,036.2,029.6,13.8,0000.0,0009.90,0004.14,0003.38
2023-09-22 21:44:00,SystemResetWarning,0826.2,4.99,000.00,028.0,026.6,000.0,036.3,029.7,14.3,0000.0,0010.83,0004.16,0003.37
2023-09-22 21:45:00,SystemResetWarning,0826.2,5.00,000.00,028.0,026.9,000.0,036.3,029.8,13.8,0000.0,0011.49,0004.18,0003.37
2023-09-22 21:46:00,SystemResetWarning,0826.3,5.00,000.00,028.1,027.0,000.0,036.3,029.9,13.2,0000.0,0011.86,0004.17,0003.36
2023-09-22 21:47:00,SystemResetWarning,0826.2,5.00,000.00,028.2,027.2,000.0,036.3,030.0,13.2,0000.0,0012.13,0004.17,0003.35
2023-09-22 21:48:00,SystemResetWarning,0826.2,4.99,000.00,028.2,026.3,000.0,036.3,029.7,13.2,0000.0,0012.48,0004.18,0003.34
2023-09-22 21:49:00,SystemResetWarning,0826.2,5.00,000.00,028.0,024.6,000.0,036.3,029.3,13.7,0000.0,0012.13,0004.18,0003.33
2023-09-22 21:50:00,SystemResetWarning,0826.2,5.01,000.00,027.9,024.2,000.0,036.2,029.3,14.0,0000.0,0012.06,0004.16,0003.32
2023-09-22 21:51:00,SystemResetWarning,0826.2,5.01,000.00,027.9,024.5,000.0,036.2,029.2,13.8,0000.0,0011.90,0004.16,0003.31
2023-09-22 21:52:00,SystemResetWarning,0826.2,4.99,000.00,027.8,024.8,000.0,036.2,029.3,13.3,0000.0,0011.85,0004.10,0003.30
2023-09-22 21:53:00,SystemResetWarning,0826.2,5.00,000.00,027.8,025.2,000.0,036.2,029.4,13.1,0000.0,0011.84,0004.10,0003.29
2023-09-22 21:54:00,SystemResetWarning,0826.2,5.01,000.00,027.8,025.6,000.0,036.2,029.4,13.2,0000.0,0011.70,0004.11,0003.29
2023-09-22 21:55:00,SystemResetWarning,0826.2,4.99,000.00,027.9,026.0,000.0,036.2,029.5,13.1,0000.0,0010.76,0004.08,0003.29
2023-09-22 21:56:00,SystemResetWarning,0826.2,5.00,000.00,027.9,026.3,000.0,036.2,029.6,13.3,0000.0,0010.50,0004.06,0003.29
2023-09-22 21:57:00,SystemResetWarning,0826.2,5.01,000.00,028.0,026.6,000.0,036.2,029.7,13.1,0000.0,0010.17,0004.04,0003.29
2023-09-22 21:58:00,SystemResetWarning,0826.2,5.00,000.00,028.0,026.8,000.0,036.3,029.8,12.8,0000.0,0011.00,0004.04,0003.29
2023-09-22 21:59:00,SystemResetWarning,0826.2,4.99,000.00,028.1,027.0,000.0,036.3,029.9,12.9,0000.0,0010.67,0004.03,0003.29
